Year,Month,Day,Hour,Minute,Value (Times are PST for temperature in C)
2012,07,06,00,00,13.90
2012,07,06,00,01,13.90
2012,07,06,00,02,13.90
2012,07,06,00,03,13.90
2012,07,06,00,04,13.90
2012,07,06,00,05,13.80
2012,07,06,00,06,13.80
2012,07,06,00,07,13.80
2012,07,06,00,08,13.80
2012,07,06,00,09,13.70
2012,07,06,00,10,13.70
2012,07,06,00,11,13.70
2012,07,06,00,12,13.70
2012,07,06,00,13,13.70
2012,07,06,00,14,13.70
2012,07,06,00,15,13.70
2012,07,06,00,16,13.70
2012,07,06,00,17,13.70
2012,07,06,00,18,13.70
2012,07,06,00,19,13.70
2012,07,06,00,20,13.70
2012,07,06,00,21,13.70
2012,07,06,00,22,13.60
2012,07,06,00,23,13.60
2012,07,06,00,24,13.60
2012,07,06,00,25,13.60
2012,07,06,00,26,13.60
2012,07,06,00,27,13.60
2012,07,06,00,28,13.60
2012,07,06,00,29,13.60
2012,07,06,00,30,13.60
2012,07,06,00,31,13.50
2012,07,06,00,32,13.50
2012,07,06,00,33,13.50
2012,07,06,00,34,13.50
2012,07,06,00,35,13.50
2012,07,06,00,36,13.50
2012,07,06,00,37,13.50
2012,07,06,00,38,13.50
2012,07,06,00,39,13.50
2012,07,06,00,40,13.50
2012,07,06,00,41,13.40
2012,07,06,00,42,13.40
2012,07,06,00,43,13.40
2012,07,06,00,44,13.40
2012,07,06,00,45,13.40
2012,07,06,00,46,13.40
2012,07,06,00,47,13.40
2012,07,06,00,48,13.30
2012,07,06,00,49,13.30
2012,07,06,00,50,13.30
2012,07,06,00,51,13.30
2012,07,06,00,52,13.30
2012,07,06,00,53,13.30
2012,07,06,00,54,13.30
2012,07,06,00,55,13.30
2012,07,06,00,56,13.30
2012,07,06,00,57,13.20
2012,07,06,00,58,13.20
2012,07,06,00,59,13.20
2012,07,06,01,00,13.20
2012,07,06,01,01,13.20
2012,07,06,01,02,13.20
2012,07,06,01,03,13.20
2012,07,06,01,04,13.10
2012,07,06,01,05,13.10
2012,07,06,01,06,13.10
2012,07,06,01,07,13.10
2012,07,06,01,08,13.10
2012,07,06,01,09,13.10
2012,07,06,01,10,13.00
2012,07,06,01,11,13.00
2012,07,06,01,12,13.00
2012,07,06,01,13,13.00
2012,07,06,01,14,12.90
2012,07,06,01,15,12.90
2012,07,06,01,16,12.90
2012,07,06,01,17,12.90
2012,07,06,01,18,12.90
2012,07,06,01,19,12.90
2012,07,06,01,20,12.80
2012,07,06,01,21,12.80
2012,07,06,01,22,12.80
2012,07,06,01,23,12.80
2012,07,06,01,24,12.80
2012,07,06,01,25,12.80
2012,07,06,01,26,12.80
2012,07,06,01,27,12.80
2012,07,06,01,28,12.80
2012,07,06,01,29,12.80
2012,07,06,01,30,12.80
2012,07,06,01,31,12.80
2012,07,06,01,32,12.80
2012,07,06,01,33,12.70
2012,07,06,01,34,12.70
2012,07,06,01,35,12.70
2012,07,06,01,36,12.70
2012,07,06,01,37,12.70
2012,07,06,01,38,12.70
2012,07,06,01,39,12.70
2012,07,06,01,40,12.60
2012,07,06,01,41,12.60
2012,07,06,01,42,12.60
2012,07,06,01,43,12.60
2012,07,06,01,44,12.60
2012,07,06,01,45,12.60
2012,07,06,01,46,12.50
2012,07,06,01,47,12.50
2012,07,06,01,48,12.50
2012,07,06,01,49,12.50
2012,07,06,01,50,12.50
2012,07,06,01,51,12.50
2012,07,06,01,52,12.40
2012,07,06,01,53,12.40
2012,07,06,01,54,12.40
2012,07,06,01,55,12.40
2012,07,06,01,56,12.30
2012,07,06,01,57,12.30
2012,07,06,01,58,12.30
2012,07,06,01,59,12.30
2012,07,06,02,00,12.30
2012,07,06,02,01,12.30
2012,07,06,02,02,12.30
2012,07,06,02,03,12.30
2012,07,06,02,04,12.30
2012,07,06,02,05,12.20
2012,07,06,02,06,12.20
2012,07,06,02,07,12.20
2012,07,06,02,08,12.20
2012,07,06,02,09,12.10
2012,07,06,02,10,12.10
2012,07,06,02,11,12.10
2012,07,06,02,12,12.10
2012,07,06,02,13,12.10
2012,07,06,02,14,12.10
2012,07,06,02,15,12.00
2012,07,06,02,16,12.00
2012,07,06,02,17,12.00
2012,07,06,02,18,12.00
2012,07,06,02,19,12.00
2012,07,06,02,20,11.90
2012,07,06,02,21,11.90
2012,07,06,02,22,11.90
2012,07,06,02,23,11.90
2012,07,06,02,24,11.80
2012,07,06,02,25,11.80
2012,07,06,02,26,11.80
2012,07,06,02,27,11.80
2012,07,06,02,28,11.80
2012,07,06,02,29,11.80
2012,07,06,02,30,11.80
2012,07,06,02,31,11.80
2012,07,06,02,32,11.80
2012,07,06,02,33,11.80
2012,07,06,02,34,11.80
2012,07,06,02,35,11.80
2012,07,06,02,36,11.80
2012,07,06,02,37,11.80
2012,07,06,02,38,11.80
2012,07,06,02,39,11.80
2012,07,06,02,40,11.70
2012,07,06,02,41,11.70
2012,07,06,02,42,11.70
2012,07,06,02,43,11.70
2012,07,06,02,44,11.70
2012,07,06,02,45,11.70
2012,07,06,02,46,11.70
2012,07,06,02,47,11.70
2012,07,06,02,48,11.70
2012,07,06,02,49,11.60
2012,07,06,02,50,11.60
2012,07,06,02,51,11.60
2012,07,06,02,52,11.60
2012,07,06,02,53,11.60
2012,07,06,02,54,11.60
2012,07,06,02,55,11.60
2012,07,06,02,56,11.60
2012,07,06,02,57,11.60
2012,07,06,02,58,11.60
2012,07,06,02,59,11.60
2012,07,06,03,00,11.60
2012,07,06,03,01,11.60
2012,07,06,03,02,11.60
2012,07,06,03,03,11.60
2012,07,06,03,04,11.60
2012,07,06,03,05,11.60
2012,07,06,03,06,11.60
2012,07,06,03,07,11.60
2012,07,06,03,08,11.60
2012,07,06,03,09,11.60
2012,07,06,03,10,11.50
2012,07,06,03,11,11.40
2012,07,06,03,12,11.40
2012,07,06,03,13,11.40
2012,07,06,03,14,11.40
2012,07,06,03,15,11.40
2012,07,06,03,16,11.40
2012,07,06,03,17,11.40
2012,07,06,03,18,11.40
2012,07,06,03,19,11.40
2012,07,06,03,20,11.40
2012,07,06,03,21,11.40
2012,07,06,03,22,11.40
2012,07,06,03,23,11.40
2012,07,06,03,24,11.40
2012,07,06,03,25,11.40
2012,07,06,03,26,11.40
2012,07,06,03,27,11.40
2012,07,06,03,28,11.40
2012,07,06,03,29,11.40
2012,07,06,03,30,11.40
2012,07,06,03,31,11.40
2012,07,06,03,32,11.40
2012,07,06,03,33,11.40
2012,07,06,03,34,11.40
2012,07,06,03,35,11.40
2012,07,06,03,36,11.40
2012,07,06,03,37,11.40
2012,07,06,03,38,11.40
2012,07,06,03,39,11.40
2012,07,06,03,40,11.40
2012,07,06,03,41,11.30
2012,07,06,03,42,11.30
2012,07,06,03,43,11.30
2012,07,06,03,44,11.20
2012,07,06,03,45,11.20
2012,07,06,03,46,11.20
2012,07,06,03,47,11.10
2012,07,06,03,48,11.10
2012,07,06,03,49,11.10
2012,07,06,03,50,11.10
2012,07,06,03,51,11.10
2012,07,06,03,52,11.00
2012,07,06,03,53,10.90
2012,07,06,03,54,10.90
2012,07,06,03,55,10.90
2012,07,06,03,56,10.90
2012,07,06,03,57,10.90
2012,07,06,03,58,10.90
2012,07,06,03,59,10.90
2012,07,06,04,00,10.90
2012,07,06,04,01,10.80
2012,07,06,04,02,10.80
2012,07,06,04,03,10.80
2012,07,06,04,04,10.80
2012,07,06,04,05,10.80
2012,07,06,04,06,10.90
2012,07,06,04,07,10.90
2012,07,06,04,08,10.90
2012,07,06,04,09,10.90
2012,07,06,04,10,10.80
2012,07,06,04,11,10.80
2012,07,06,04,12,10.80
2012,07,06,04,13,10.80
2012,07,06,04,14,10.80
2012,07,06,04,15,10.80
2012,07,06,04,16,10.80
2012,07,06,04,17,10.80
2012,07,06,04,18,10.80
2012,07,06,04,19,10.80
2012,07,06,04,20,10.80
2012,07,06,04,21,10.70
2012,07,06,04,22,10.70
2012,07,06,04,23,10.60
2012,07,06,04,24,10.60
2012,07,06,04,25,10.60
2012,07,06,04,26,10.60
2012,07,06,04,27,10.60
2012,07,06,04,28,10.60
2012,07,06,04,29,10.60
2012,07,06,04,30,10.60
2012,07,06,04,31,10.60
2012,07,06,04,32,10.60
2012,07,06,04,33,10.60
2012,07,06,04,34,10.60
2012,07,06,04,35,10.60
2012,07,06,04,36,10.60
2012,07,06,04,37,10.60
2012,07,06,04,38,10.60
2012,07,06,04,39,10.60
2012,07,06,04,40,10.60
2012,07,06,04,41,10.60
2012,07,06,04,42,10.60
2012,07,06,04,43,10.60
2012,07,06,04,44,10.60
2012,07,06,04,45,10.60
2012,07,06,04,46,10.50
2012,07,06,04,47,10.40
2012,07,06,04,48,10.40
2012,07,06,04,49,10.40
2012,07,06,04,50,10.40
2012,07,06,04,51,10.40
2012,07,06,04,52,10.40
2012,07,06,04,53,10.40
2012,07,06,04,54,10.40
2012,07,06,04,55,10.30
2012,07,06,04,56,10.30
2012,07,06,04,57,10.30
2012,07,06,04,58,10.30
2012,07,06,04,59,10.30
2012,07,06,05,00,10.30
2012,07,06,05,01,10.20
2012,07,06,05,02,10.20
2012,07,06,05,03,10.20
2012,07,06,05,04,10.20
2012,07,06,05,05,10.20
2012,07,06,05,06,10.20
2012,07,06,05,07,10.10
2012,07,06,05,08,10.10
2012,07,06,05,09,10.10
2012,07,06,05,10,10.10
2012,07,06,05,11,10.10
2012,07,06,05,12,10.10
2012,07,06,05,13,10.10
2012,07,06,05,14,10.10
2012,07,06,05,15,10.10
2012,07,06,05,16,10.10
2012,07,06,05,17,10.10
2012,07,06,05,18,10.10
2012,07,06,05,19,10.10
2012,07,06,05,20,10.10
2012,07,06,05,21,10.10
2012,07,06,05,22,10.10
2012,07,06,05,23,10.10
2012,07,06,05,24,10.10
2012,07,06,05,25,10.10
2012,07,06,05,26,10.10
2012,07,06,05,27,10.10
2012,07,06,05,28,10.10
2012,07,06,05,29,10.10
2012,07,06,05,30,10.10
2012,07,06,05,31,10.10
2012,07,06,05,32,10.10
2012,07,06,05,33,10.10
2012,07,06,05,34,10.10
2012,07,06,05,35,10.10
2012,07,06,05,36,10.10
2012,07,06,05,37,10.10
2012,07,06,05,38,10.10
2012,07,06,05,39,10.10
2012,07,06,05,40,10.10
2012,07,06,05,41,10.10
2012,07,06,05,42,10.10
2012,07,06,05,43,10.20
2012,07,06,05,44,10.20
2012,07,06,05,45,10.20
2012,07,06,05,46,10.20
2012,07,06,05,47,10.30
2012,07,06,05,48,10.30
2012,07,06,05,49,10.40
2012,07,06,05,50,10.40
2012,07,06,05,51,10.50
2012,07,06,05,52,10.60
2012,07,06,05,53,10.60
2012,07,06,05,54,10.60
2012,07,06,05,55,10.60
2012,07,06,05,56,10.60
2012,07,06,05,57,10.60
2012,07,06,05,58,10.60
2012,07,06,05,59,10.70
2012,07,06,06,00,10.70
2012,07,06,06,01,10.70
2012,07,06,06,02,10.70
2012,07,06,06,03,10.70
2012,07,06,06,04,10.70
2012,07,06,06,05,10.70
2012,07,06,06,06,10.80
2012,07,06,06,07,10.80
2012,07,06,06,08,10.80
2012,07,06,06,09,10.80
2012,07,06,06,10,10.90
2012,07,06,06,11,10.90
2012,07,06,06,12,10.90
2012,07,06,06,13,10.90
2012,07,06,06,14,10.90
2012,07,06,06,15,10.90
2012,07,06,06,16,10.90
2012,07,06,06,17,10.90
2012,07,06,06,18,10.90
2012,07,06,06,19,10.90
2012,07,06,06,20,10.90
2012,07,06,06,21,11.00
2012,07,06,06,22,11.10
2012,07,06,06,23,11.10
2012,07,06,06,24,11.20
2012,07,06,06,25,11.30
2012,07,06,06,26,11.40
2012,07,06,06,27,11.50
2012,07,06,06,28,11.60
2012,07,06,06,29,11.60
2012,07,06,06,30,11.70
2012,07,06,06,31,11.80
2012,07,06,06,32,11.90
2012,07,06,06,33,12.00
2012,07,06,06,34,12.00
2012,07,06,06,35,12.10
2012,07,06,06,36,12.20
2012,07,06,06,37,12.20
2012,07,06,06,38,12.30
2012,07,06,06,39,12.30
2012,07,06,06,40,12.40
2012,07,06,06,41,12.40
2012,07,06,06,42,12.50
2012,07,06,06,43,12.60
2012,07,06,06,44,12.70
2012,07,06,06,45,12.80
2012,07,06,06,46,12.80
2012,07,06,06,47,12.90
2012,07,06,06,48,13.00
2012,07,06,06,49,13.10
2012,07,06,06,50,13.30
2012,07,06,06,51,13.40
2012,07,06,06,52,13.50
2012,07,06,06,53,13.60
2012,07,06,06,54,13.70
2012,07,06,06,55,13.70
2012,07,06,06,56,13.80
2012,07,06,06,57,13.90
2012,07,06,06,58,13.90
2012,07,06,06,59,14.00
2012,07,06,07,00,14.00
2012,07,06,07,01,14.00
2012,07,06,07,02,14.10
2012,07,06,07,03,14.20
2012,07,06,07,04,14.30
2012,07,06,07,05,14.40
2012,07,06,07,06,14.50
2012,07,06,07,07,14.60
2012,07,06,07,08,14.60
2012,07,06,07,09,14.60
2012,07,06,07,10,14.50
2012,07,06,07,11,14.50
2012,07,06,07,12,14.50
2012,07,06,07,13,14.50
2012,07,06,07,14,14.50
2012,07,06,07,15,14.50
2012,07,06,07,16,14.50
2012,07,06,07,17,14.50
2012,07,06,07,18,14.50
2012,07,06,07,19,14.60
2012,07,06,07,20,14.60
2012,07,06,07,21,14.70
2012,07,06,07,22,14.70
2012,07,06,07,23,14.70
2012,07,06,07,24,14.80
2012,07,06,07,25,14.80
2012,07,06,07,26,14.80
2012,07,06,07,27,14.80
2012,07,06,07,28,14.70
2012,07,06,07,29,14.70
2012,07,06,07,30,14.70
2012,07,06,07,31,14.70
2012,07,06,07,32,14.80
2012,07,06,07,33,14.90
2012,07,06,07,34,15.00
2012,07,06,07,35,15.00
2012,07,06,07,36,14.90
2012,07,06,07,37,15.00
2012,07,06,07,38,15.00
2012,07,06,07,39,15.10
2012,07,06,07,40,15.10
2012,07,06,07,41,15.10
2012,07,06,07,42,15.10
2012,07,06,07,43,15.10
2012,07,06,07,44,15.10
2012,07,06,07,45,15.10
2012,07,06,07,46,15.10
2012,07,06,07,47,15.10
2012,07,06,07,48,15.10
2012,07,06,07,49,15.10
2012,07,06,07,50,15.10
2012,07,06,07,51,15.20
2012,07,06,07,52,15.10
2012,07,06,07,53,15.10
2012,07,06,07,54,15.20
2012,07,06,07,55,15.30
2012,07,06,07,56,15.30
2012,07,06,07,57,15.40
2012,07,06,07,58,15.50
2012,07,06,07,59,15.50
2012,07,06,08,00,15.60
2012,07,06,08,01,15.60
2012,07,06,08,02,15.60
2012,07,06,08,03,15.50
2012,07,06,08,04,15.50
2012,07,06,08,05,15.60
2012,07,06,08,06,15.60
2012,07,06,08,07,15.70
2012,07,06,08,08,15.80
2012,07,06,08,09,15.80
2012,07,06,08,10,15.90
2012,07,06,08,11,16.00
2012,07,06,08,12,16.10
2012,07,06,08,13,16.20
2012,07,06,08,14,16.30
2012,07,06,08,15,16.40
2012,07,06,08,16,16.40
2012,07,06,08,17,16.40
2012,07,06,08,18,16.40
2012,07,06,08,19,16.40
2012,07,06,08,20,16.40
2012,07,06,08,21,16.40
2012,07,06,08,22,16.40
2012,07,06,08,23,16.40
2012,07,06,08,24,16.40
2012,07,06,08,25,16.40
2012,07,06,08,26,16.40
2012,07,06,08,27,16.40
2012,07,06,08,28,16.40
2012,07,06,08,29,16.40
2012,07,06,08,30,16.40
2012,07,06,08,31,16.40
2012,07,06,08,32,16.40
2012,07,06,08,33,16.40
2012,07,06,08,34,16.40
2012,07,06,08,35,16.40
2012,07,06,08,36,16.40
2012,07,06,08,37,16.50
2012,07,06,08,38,16.60
2012,07,06,08,39,16.70
2012,07,06,08,40,16.90
2012,07,06,08,41,17.00
2012,07,06,08,42,17.10
2012,07,06,08,43,17.10
2012,07,06,08,44,17.00
2012,07,06,08,45,16.90
2012,07,06,08,46,16.80
2012,07,06,08,47,16.80
2012,07,06,08,48,16.80
2012,07,06,08,49,16.70
2012,07,06,08,50,16.70
2012,07,06,08,51,16.70
2012,07,06,08,52,16.70
2012,07,06,08,53,16.70
2012,07,06,08,54,16.60
2012,07,06,08,55,16.40
2012,07,06,08,56,16.50
2012,07,06,08,57,16.60
2012,07,06,08,58,16.50
2012,07,06,08,59,16.40
2012,07,06,09,00,16.20
2012,07,06,09,01,16.10
2012,07,06,09,02,16.10
2012,07,06,09,03,16.10
2012,07,06,09,04,15.90
2012,07,06,09,05,15.90
2012,07,06,09,06,16.00
2012,07,06,09,07,16.10
2012,07,06,09,08,16.10
2012,07,06,09,09,16.00
2012,07,06,09,10,15.90
2012,07,06,09,11,15.80
2012,07,06,09,12,15.90
2012,07,06,09,13,16.10
2012,07,06,09,14,16.00
2012,07,06,09,15,15.90
2012,07,06,09,16,15.80
2012,07,06,09,17,15.80
2012,07,06,09,18,15.70
2012,07,06,09,19,15.60
2012,07,06,09,20,15.40
2012,07,06,09,21,15.30
2012,07,06,09,22,15.30
2012,07,06,09,23,15.30
2012,07,06,09,24,15.20
2012,07,06,09,25,15.20
2012,07,06,09,26,15.20
2012,07,06,09,27,15.20
2012,07,06,09,28,15.10
2012,07,06,09,29,15.10
2012,07,06,09,30,15.20
2012,07,06,09,31,15.30
2012,07,06,09,32,15.50
2012,07,06,09,33,15.60
2012,07,06,09,34,15.70
2012,07,06,09,35,15.70
2012,07,06,09,36,15.70
2012,07,06,09,37,15.60
2012,07,06,09,38,15.60
2012,07,06,09,39,15.50
2012,07,06,09,40,15.60
2012,07,06,09,41,15.70
2012,07,06,09,42,15.90
2012,07,06,09,43,15.90
2012,07,06,09,44,16.00
2012,07,06,09,45,16.10
2012,07,06,09,46,16.10
2012,07,06,09,47,16.10
2012,07,06,09,48,16.10
2012,07,06,09,49,16.00
2012,07,06,09,50,16.00
2012,07,06,09,51,16.10
2012,07,06,09,52,16.10
2012,07,06,09,53,16.10
2012,07,06,09,54,16.10
2012,07,06,09,55,16.10
2012,07,06,09,56,16.10
2012,07,06,09,57,16.10
2012,07,06,09,58,16.10
2012,07,06,09,59,16.10
2012,07,06,10,00,16.10
2012,07,06,10,01,16.10
2012,07,06,10,02,16.30
2012,07,06,10,03,16.30
2012,07,06,10,04,16.40
2012,07,06,10,05,16.40
2012,07,06,10,06,16.40
2012,07,06,10,07,16.40
2012,07,06,10,08,16.40
2012,07,06,10,09,16.40
2012,07,06,10,10,16.40
2012,07,06,10,11,16.40
2012,07,06,10,12,16.50
2012,07,06,10,13,16.60
2012,07,06,10,14,16.60
2012,07,06,10,15,16.60
2012,07,06,10,16,16.60
2012,07,06,10,17,16.70
2012,07,06,10,18,16.80
2012,07,06,10,19,16.80
2012,07,06,10,20,16.90
2012,07,06,10,21,17.00
2012,07,06,10,22,17.00
2012,07,06,10,23,16.90
2012,07,06,10,24,16.90
2012,07,06,10,25,16.90
2012,07,06,10,26,16.90
2012,07,06,10,27,16.90
2012,07,06,10,28,16.90
2012,07,06,10,29,16.90
2012,07,06,10,30,16.90
2012,07,06,10,31,17.00
2012,07,06,10,32,17.10
2012,07,06,10,33,17.10
2012,07,06,10,34,17.10
2012,07,06,10,35,17.10
2012,07,06,10,36,17.10
2012,07,06,10,37,17.10
2012,07,06,10,38,17.20
2012,07,06,10,39,17.10
2012,07,06,10,40,17.10
2012,07,06,10,41,17.20
2012,07,06,10,42,17.10
2012,07,06,10,43,17.10
2012,07,06,10,44,17.10
2012,07,06,10,45,17.10
2012,07,06,10,46,17.20
2012,07,06,10,47,17.30
2012,07,06,10,48,17.30
2012,07,06,10,49,17.50
2012,07,06,10,50,17.50
2012,07,06,10,51,17.70
2012,07,06,10,52,17.60
2012,07,06,10,53,17.50
2012,07,06,10,54,17.50
2012,07,06,10,55,17.40
2012,07,06,10,56,17.30
2012,07,06,10,57,17.30
2012,07,06,10,58,17.30
2012,07,06,10,59,17.30
2012,07,06,11,00,17.60
2012,07,06,11,01,17.80
2012,07,06,11,02,17.90
2012,07,06,11,03,18.00
2012,07,06,11,04,18.10
2012,07,06,11,05,18.20
2012,07,06,11,06,18.10
2012,07,06,11,07,18.10
2012,07,06,11,08,18.20
2012,07,06,11,09,18.10
2012,07,06,11,10,18.10
2012,07,06,11,11,18.20
2012,07,06,11,12,18.20
2012,07,06,11,13,18.00
2012,07,06,11,14,17.90
2012,07,06,11,15,17.80
2012,07,06,11,16,17.90
2012,07,06,11,17,17.90
2012,07,06,11,18,17.80
2012,07,06,11,19,17.80
2012,07,06,11,20,17.90
2012,07,06,11,21,17.90
2012,07,06,11,22,18.00
2012,07,06,11,23,18.10
2012,07,06,11,24,18.10
2012,07,06,11,25,18.20
2012,07,06,11,26,18.10
2012,07,06,11,27,18.00
2012,07,06,11,28,17.90
2012,07,06,11,29,17.70
2012,07,06,11,30,17.60
2012,07,06,11,31,17.60
2012,07,06,11,32,17.60
2012,07,06,11,33,17.50
2012,07,06,11,34,17.50
2012,07,06,11,35,17.60
2012,07,06,11,36,17.60
2012,07,06,11,37,17.60
2012,07,06,11,38,17.80
2012,07,06,11,39,17.90
2012,07,06,11,40,17.80
2012,07,06,11,41,17.70
2012,07,06,11,42,17.70
2012,07,06,11,43,17.90
2012,07,06,11,44,17.80
2012,07,06,11,45,17.90
2012,07,06,11,46,17.90
2012,07,06,11,47,17.90
2012,07,06,11,48,18.00
2012,07,06,11,49,18.10
2012,07,06,11,50,18.00
2012,07,06,11,51,17.90
2012,07,06,11,52,18.10
2012,07,06,11,53,18.10
2012,07,06,11,54,18.10
2012,07,06,11,55,18.10
2012,07,06,11,56,18.20
2012,07,06,11,57,18.40
2012,07,06,11,58,18.60
2012,07,06,11,59,18.70
2012,07,06,12,00,18.90
2012,07,06,12,01,18.90
2012,07,06,12,02,18.90
2012,07,06,12,03,18.90
2012,07,06,12,04,18.90
2012,07,06,12,05,18.80
2012,07,06,12,06,18.80
2012,07,06,12,07,18.80
2012,07,06,12,08,18.70
2012,07,06,12,09,18.70
2012,07,06,12,10,18.60
2012,07,06,12,11,18.70
2012,07,06,12,12,18.70
2012,07,06,12,13,18.60
2012,07,06,12,14,18.80
2012,07,06,12,15,19.00
2012,07,06,12,16,19.10
2012,07,06,12,17,19.10
2012,07,06,12,18,19.10
2012,07,06,12,19,19.10
2012,07,06,12,20,19.20
2012,07,06,12,21,19.30
2012,07,06,12,22,19.30
2012,07,06,12,23,19.30
2012,07,06,12,24,19.20
2012,07,06,12,25,19.20
2012,07,06,12,26,19.10
2012,07,06,12,27,19.10
2012,07,06,12,28,19.20
2012,07,06,12,29,19.40
2012,07,06,12,30,19.50
2012,07,06,12,31,19.50
2012,07,06,12,32,19.50
2012,07,06,12,33,19.50
2012,07,06,12,34,19.40
2012,07,06,12,35,19.30
2012,07,06,12,36,19.40
2012,07,06,12,37,19.60
2012,07,06,12,38,19.60
2012,07,06,12,39,19.70
2012,07,06,12,40,19.80
2012,07,06,12,41,19.80
2012,07,06,12,42,19.80
2012,07,06,12,43,19.70
2012,07,06,12,44,19.80
2012,07,06,12,45,19.90
2012,07,06,12,46,19.80
2012,07,06,12,47,19.70
2012,07,06,12,48,19.70
2012,07,06,12,49,19.80
2012,07,06,12,50,19.90
2012,07,06,12,51,20.00
2012,07,06,12,52,20.20
2012,07,06,12,53,20.20
2012,07,06,12,54,20.00
2012,07,06,12,55,19.90
2012,07,06,12,56,20.00
2012,07,06,12,57,20.10
2012,07,06,12,58,20.20
2012,07,06,12,59,20.40
2012,07,06,13,00,20.60
2012,07,06,13,01,20.60
2012,07,06,13,02,20.50
2012,07,06,13,03,20.50
2012,07,06,13,04,20.60
2012,07,06,13,05,20.60
2012,07,06,13,06,20.60
2012,07,06,13,07,20.60
2012,07,06,13,08,20.60
2012,07,06,13,09,20.70
2012,07,06,13,10,20.80
2012,07,06,13,11,20.80
2012,07,06,13,12,20.60
2012,07,06,13,13,20.50
2012,07,06,13,14,20.40
2012,07,06,13,15,20.40
2012,07,06,13,16,20.50
2012,07,06,13,17,20.50
2012,07,06,13,18,20.50
2012,07,06,13,19,20.60
2012,07,06,13,20,20.70
2012,07,06,13,21,20.70
2012,07,06,13,22,20.70
2012,07,06,13,23,20.70
2012,07,06,13,24,20.80
2012,07,06,13,25,20.80
2012,07,06,13,26,20.80
2012,07,06,13,27,20.80
2012,07,06,13,28,20.90
2012,07,06,13,29,21.00
2012,07,06,13,30,21.00
2012,07,06,13,31,21.00
2012,07,06,13,32,21.30
2012,07,06,13,33,21.40
2012,07,06,13,34,21.40
2012,07,06,13,35,21.50
2012,07,06,13,36,21.40
2012,07,06,13,37,21.20
2012,07,06,13,38,21.20
2012,07,06,13,39,21.20
2012,07,06,13,40,21.20
2012,07,06,13,41,21.20
2012,07,06,13,42,21.20
2012,07,06,13,43,21.20
2012,07,06,13,44,21.40
2012,07,06,13,45,21.60
2012,07,06,13,46,21.80
2012,07,06,13,47,22.00
2012,07,06,13,48,22.20
2012,07,06,13,49,22.40
2012,07,06,13,50,22.60
2012,07,06,13,51,22.60
2012,07,06,13,52,22.60
2012,07,06,13,53,22.50
2012,07,06,13,54,22.30
2012,07,06,13,55,22.20
2012,07,06,13,56,22.20
2012,07,06,13,57,22.30
2012,07,06,13,58,22.40
2012,07,06,13,59,22.60
2012,07,06,14,00,22.70
2012,07,06,14,01,22.60
2012,07,06,14,02,22.50
2012,07,06,14,03,22.40
2012,07,06,14,04,22.40
2012,07,06,14,05,22.50
2012,07,06,14,06,22.60
2012,07,06,14,07,22.70
2012,07,06,14,08,22.90
2012,07,06,14,09,22.90
2012,07,06,14,10,22.90
2012,07,06,14,11,23.00
2012,07,06,14,12,23.10
2012,07,06,14,13,23.20
2012,07,06,14,14,23.20
2012,07,06,14,15,23.30
2012,07,06,14,16,23.30
2012,07,06,14,17,23.30
2012,07,06,14,18,23.40
2012,07,06,14,19,23.50
2012,07,06,14,20,23.60
2012,07,06,14,21,23.70
2012,07,06,14,22,23.80
2012,07,06,14,23,23.70
2012,07,06,14,24,23.70
2012,07,06,14,25,23.70
2012,07,06,14,26,23.70
2012,07,06,14,27,23.70
2012,07,06,14,28,23.40
2012,07,06,14,29,23.30
2012,07,06,14,30,23.30
2012,07,06,14,31,23.40
2012,07,06,14,32,23.50
2012,07,06,14,33,23.60
2012,07,06,14,34,23.70
2012,07,06,14,35,23.70
2012,07,06,14,36,23.80
2012,07,06,14,37,23.90
2012,07,06,14,38,23.90
2012,07,06,14,39,24.00
2012,07,06,14,40,23.90
2012,07,06,14,41,23.90
2012,07,06,14,42,23.90
2012,07,06,14,43,23.90
2012,07,06,14,44,23.90
2012,07,06,14,45,24.10
2012,07,06,14,46,24.10
2012,07,06,14,47,24.10
2012,07,06,14,48,24.10
2012,07,06,14,49,24.10
2012,07,06,14,50,24.10
2012,07,06,14,51,24.10
2012,07,06,14,52,24.10
2012,07,06,14,53,24.00
2012,07,06,14,54,23.90
2012,07,06,14,55,23.90
2012,07,06,14,56,23.90
2012,07,06,14,57,23.90
2012,07,06,14,58,23.90
2012,07,06,14,59,24.00
2012,07,06,15,00,24.10
2012,07,06,15,01,24.10
2012,07,06,15,02,24.20
2012,07,06,15,03,24.30
2012,07,06,15,04,24.40
2012,07,06,15,05,24.50
2012,07,06,15,06,24.60
2012,07,06,15,07,24.60
2012,07,06,15,08,24.50
2012,07,06,15,09,24.50
2012,07,06,15,10,24.40
2012,07,06,15,11,24.40
2012,07,06,15,12,24.40
2012,07,06,15,13,24.40
2012,07,06,15,14,24.50
2012,07,06,15,15,24.50
2012,07,06,15,16,24.60
2012,07,06,15,17,24.70
2012,07,06,15,18,24.60
2012,07,06,15,19,24.70
2012,07,06,15,20,24.80
2012,07,06,15,21,24.60
2012,07,06,15,22,24.60
2012,07,06,15,23,24.60
2012,07,06,15,24,24.60
2012,07,06,15,25,24.50
2012,07,06,15,26,24.60
2012,07,06,15,27,24.70
2012,07,06,15,28,24.80
2012,07,06,15,29,24.80
2012,07,06,15,30,24.90
2012,07,06,15,31,24.90
2012,07,06,15,32,24.90
2012,07,06,15,33,24.90
2012,07,06,15,34,24.90
2012,07,06,15,35,24.90
2012,07,06,15,36,24.90
2012,07,06,15,37,24.80
2012,07,06,15,38,24.80
2012,07,06,15,39,24.70
2012,07,06,15,40,24.70
2012,07,06,15,41,24.70
2012,07,06,15,42,24.80
2012,07,06,15,43,24.80
2012,07,06,15,44,24.80
2012,07,06,15,45,24.80
2012,07,06,15,46,24.70
2012,07,06,15,47,24.70
2012,07,06,15,48,24.60
2012,07,06,15,49,24.50
2012,07,06,15,50,24.30
2012,07,06,15,51,24.10
2012,07,06,15,52,24.10
2012,07,06,15,53,24.10
2012,07,06,15,54,24.10
2012,07,06,15,55,24.10
2012,07,06,15,56,24.20
2012,07,06,15,57,24.20
2012,07,06,15,58,24.20
2012,07,06,15,59,24.10
2012,07,06,16,00,24.10
2012,07,06,16,01,24.10
2012,07,06,16,02,24.10
2012,07,06,16,03,24.10
2012,07,06,16,04,24.10
2012,07,06,16,05,24.00
2012,07,06,16,06,23.80
2012,07,06,16,07,23.80
2012,07,06,16,08,23.80
2012,07,06,16,09,23.90
2012,07,06,16,10,24.00
2012,07,06,16,11,24.10
2012,07,06,16,12,24.10
2012,07,06,16,13,24.20
2012,07,06,16,14,24.20
2012,07,06,16,15,24.20
2012,07,06,16,16,24.20
2012,07,06,16,17,24.40
2012,07,06,16,18,24.50
2012,07,06,16,19,24.50
2012,07,06,16,20,24.50
2012,07,06,16,21,24.50
2012,07,06,16,22,24.60
2012,07,06,16,23,24.60
2012,07,06,16,24,24.70
2012,07,06,16,25,24.70
2012,07,06,16,26,24.70
2012,07,06,16,27,24.80
2012,07,06,16,28,24.90
2012,07,06,16,29,24.90
2012,07,06,16,30,24.90
2012,07,06,16,31,24.90
2012,07,06,16,32,24.80
2012,07,06,16,33,24.70
2012,07,06,16,34,24.70
2012,07,06,16,35,24.80
2012,07,06,16,36,24.80
2012,07,06,16,37,24.80
2012,07,06,16,38,24.80
2012,07,06,16,39,24.80
2012,07,06,16,40,24.90
2012,07,06,16,41,24.90
2012,07,06,16,42,24.90
2012,07,06,16,43,24.90
2012,07,06,16,44,24.90
2012,07,06,16,45,24.90
2012,07,06,16,46,24.80
2012,07,06,16,47,24.80
2012,07,06,16,48,24.80
2012,07,06,16,49,24.70
2012,07,06,16,50,24.70
2012,07,06,16,51,24.80
2012,07,06,16,52,24.80
2012,07,06,16,53,24.80
2012,07,06,16,54,24.80
2012,07,06,16,55,24.70
2012,07,06,16,56,24.70
2012,07,06,16,57,24.70
2012,07,06,16,58,24.60
2012,07,06,16,59,24.50
2012,07,06,17,00,24.30
2012,07,06,17,01,24.30
2012,07,06,17,02,24.40
2012,07,06,17,03,24.50
2012,07,06,17,04,24.60
2012,07,06,17,05,24.60
2012,07,06,17,06,24.70
2012,07,06,17,07,24.70
2012,07,06,17,08,24.60
2012,07,06,17,09,24.60
2012,07,06,17,10,24.60
2012,07,06,17,11,24.50
2012,07,06,17,12,24.50
2012,07,06,17,13,24.50
2012,07,06,17,14,24.50
2012,07,06,17,15,24.50
2012,07,06,17,16,24.50
2012,07,06,17,17,24.50
2012,07,06,17,18,24.50
2012,07,06,17,19,24.40